This is the latest recevied weather packets stored in our database for station/object KR4KUV. If no packets are shown the sender has not sent any weather packets the latest 10 day(s).
| Time | Temp. | Humidity | Pressure | Rain* | Wind** | Luminosity | Snow |
|---|---|---|---|---|---|---|---|
| 1788560596 | 34.44° C | 58% | 1015.6 hPa | 0 mm | - | 111 W/m² | - |
| 1788560290 | 35° C | 58% | 1015.8 hPa | 0 mm | - | 127 W/m² | - |
| 1788559990 | 35° C | 56% | 1016 hPa | 0 mm | - | 140 W/m² | - |
| 1788559686 | 35.56° C | 53% | 1016 hPa | 0 mm | - | 154 W/m² | - |
| 1788559385 | 35° C | 52% | 1016.1 hPa | 0 mm | - | 166 W/m² | - |
| 1788559080 | 35.56° C | 51% | 1015.9 hPa | 0 mm | - | 173 W/m² | - |
| 1788558775 | 35.56° C | 53% | 1015.9 hPa | 0 mm | - | 183 W/m² | - |
| 1788558471 | 36.11° C | 51% | 1015.9 hPa | 0 mm | - | 210 W/m² | - |
| 1788558167 | 35.56° C | 52% | 1015.8 hPa | 0 mm | - | 225 W/m² | - |
| 1788557864 | 35.56° C | 51% | 1015.8 hPa | 0 mm | - | 240 W/m² | - |
| 1788557561 | 35.56° C | 51% | 1015.9 hPa | 0 mm | - | 260 W/m² | - |
| 1788557256 | 35.56° C | 50% | 1015.8 hPa | 0 mm | - | 274 W/m² | - |
| 1788556951 | 36.11° C | 53% | 1016 hPa | 0 mm | - | 288 W/m² | - |
| 1788556651 | 36.11° C | 51% | 1016 hPa | 0 mm | - | 305 W/m² | - |
| 1788556346 | 36.11° C | 50% | 1016 hPa | 0 mm | - | 322 W/m² | - |
| 1788556041 | 36.67° C | 50% | 1016 hPa | 0 mm | - | 337 W/m² | - |
| 1788555736 | 36.67° C | 54% | 1015.8 hPa | 0 mm | - | 349 W/m² | - |
| 1788555432 | 36.67° C | 51% | 1016 hPa | 0 mm | - | 376 W/m² | - |
| 1788555128 | 36.11° C | 51% | 1016 hPa | 0 mm | - | 385 W/m² | - |
| 1788554843 | 36.67° C | 51% | 1016.1 hPa | 0 mm | - | 401 W/m² | - |
| 1788554520 | 36.67° C | 51% | 1016 hPa | 0 mm | - | 423 W/m² | - |
| 1788554215 | 36.11° C | 52% | 1016.2 hPa | 0 mm | - | 434 W/m² | - |
| 1788553912 | 36.67° C | 52% | 1016.1 hPa | 0 mm | - | 449 W/m² | - |
| 1788553607 | 36.67° C | 50% | 1016.1 hPa | 0 mm | - | 466 W/m² | - |
| 1788553304 | 36.67° C | 52% | 1016.2 hPa | 0 mm | - | 483 W/m² | - |
* Rain latest hour (hover to see other rain measurements)
** Current wind speed in m/s (hover to see current wind gust speed)